GFSSW_850_rhum_000.txt.gz
RH
8 9 11 12 14 14 16 16 15 15 15 16 16 15 14 13 15 14 14 15 9 7 7 16 37 42 38 30 30 29 20 19 19 21 23 26 27 36 38 46 48 46 43 51 65
8 8 7 8 8 10 11 13 14 14 14 15 16 15 15 14 13 12 15 7 7 7 14 31 29 37 24 18 20 21 19 17 14 17 21 26 26 35 40 42 42 50 50 57 66
9 8 8 8 8 7 7 8 11 12 14 13 14 15 15 14 15 11 13 8 8 7 20 21 16 23 12 9 12 15 19 16 16 17 20 24 27 32 30 36 36 46 54 60 65
10 10 9 9 8 8 8 7 7 9 11 13 13 13 14 14 11 9 11 12 12 9 21 18 12 13 7 8 9 14 13 14 16 20 21 22 26 29 30 27 33 40 54 60 64
10 10 10 9 9 9 8 8 7 7 8 10 12 12 12 23 14 11 11 11 10 11 15 13 9 9 7 7 8 11 10 11 12 18 19 23 25 26 31 35 36 44 56 58 60
9 9 9 9 9 9 8 8 8 7 6 8 10 10 11 15 11 11 13 12 21 18 14 11 8 7 6 7 9 9 10 10 11 17 21 24 27 30 30 32 41 49 55 56 57
10 9 8 8 9 9 8 8 8 8 7 6 7 9 17 14 13 11 12 20 24 19 13 11 8 7 7 8 9 10 13 18 16 18 23 24 32 31 30 38 45 49 52 54 56
8 9 8 8 8 8 8 8 8 8 7 5 6 14 24 18 12 17 22 22 14 23 17 13 10 9 7 9 10 11 12 16 18 21 24 25 22 27 34 39 44 47 51 53 56
7 7 8 8 7 7 8 8 7 7 7 7 18 26 18 20 20 21 22 16 17 19 16 12 11 10 8 10 12 12 15 14 23 22 27 27 21 24 33 35 38 45 47 52 55
8 7 6 7 7 6 7 7 7 8 14 26 39 45 24 14 21 18 23 14 14 17 16 12 11 9 9 9 14 15 15 14 16 24 25 27 21 27 32 32 32 42 44 48 50
8 7 5 6 6 6 6 6 29 35 33 21 13 17 13 14 16 15 19 13 11 13 9 8 8 9 9 9 10 11 14 14 13 18 24 22 22 22 34 33 32 37 43 44 44
9 9 6 5 5 6 8 15 19 14 13 10 10 11 12 13 14 11 14 14 10 11 8 8 8 6 6 8 10 11 13 14 13 19 21 19 22 21 24 34 31 33 39 44 44
9 9 6 4 5 9 6 22 14 11 13 8 10 11 12 13 14 12 12 13 11 10 8 9 6 5 6 7 10 12 13 14 16 21 21 19 24 21 19 28 33 32 33 39 43
10 9 8 4 11 6 22 12 8 10 13 9 12 14 19 16 15 14 11 12 10 10 9 7 5 6 7 9 9 13 10 12 15 20 25 20 23 17 17 25 29 34 34 33 40
12 9 9 8 5 11 15 7 8 24 17 10 12 16 18 16 13 15 11 10 10 10 9 9 6 7 7 7 7 11 9 11 13 17 20 22 25 17 18 20 23 28 32 31 32
14 11 10 10 6 5 7 5 23 21 17 10 12 14 14 13 12 16 13 11 9 9 10 9 6 6 6 5 7 8 11 12 13 14 22 19 20 17 15 18 15 18 26 30 30
15 13 10 9 19 5 6 15 15 15 11 10 11 11 10 9 10 12 14 13 12 17 15 10 8 6 4 7 6 9 13 20 21 20 21 16 19 17 11 10 11 10 16 28 29
18 15 12 8 5 5 13 10 16 10 10 10 11 11 12 9 9 10 12 12 10 11 11 14 12 8 6 6 8 10 11 16 24 19 17 15 20 15 11 10 9 9 13 22 28
20 18 21 9 18 20 22 10 10 10 9 7 8 11 11 10 9 10 11 11 9 10 13 12 13 7 6 6 6 10 12 10 13 12 13 11 15 11 10 12 11 12 16 18 25
29 48 32 32 30 50 18 13 7 5 7 10 11 9 10 8 10 10 10 9 10 9 10 12 15 9 7 6 6 7 8 13 13 23 21 15 14 15 13 10 8 11 15 18 23
60 36 29 33 62 43 20 11 8 5 6 9 9 9 10 10 11 10 10 9 9 9 11 11 13 10 9 8 7 8 9 12 11 13 17 19 14 10 11 11 10 8 14 15 19
63 26 32 63 37 21 20 13 11 8 5 5 7 7 8 10 12 11 11 10 9 9 13 12 13 16 9 6 5 6 9 11 14 21 14 14 12 7 8 8 8 7 7 8 16
61 37 30 42 24 15 16 16 15 14 8 7 6 7 7 10 13 11 9 8 8 10 12 12 15 19 16 7 6 7 7 9 10 12 19 17 14 7 8 9 8 13 12 13 22
64 29 22 43 28 32 28 32 25 15 14 10 9 8 7 10 10 12 12 8 10 9 24 17 12 16 15 14 8 9 7 7 8 12 14 13 12 10 8 10 8 9 13 16 26
61 33 52 27 32 46 46 39 32 23 17 15 16 15 12 13 13 14 13 12 14 15 20 24 27 17 13 11 9 9 7 7 8 8 13 11 11 10 10 9 8 7 8 15 27
78 59 69 57 50 40 34 34 33 25 26 25 22 15 13 16 15 14 12 13 12 13 14 16 29 23 21 14 12 12 10 7 7 7 8 8 10 7 7 8 7 7 7 14 26
82 81 76 46 37 40 31 28 30 34 30 25 26 30 28 22 21 20 20 21 19 18 20 23 25 32 28 17 16 18 13 10 8 6 7 9 8 7 7 8 9 8 12 15 23

GFSSW_850_rhum_006.txt.gz
RH
9 8 8 8 8 7 7 7 8 10 12 13 13 12 12 14 15 14 13 14 16 10 8 32 33 30 22 20 20 20 20 24 21 16 13 14 14 19 25 25 36 38 42 49 57
11 11 10 9 9 8 8 7 7 7 8 10 12 12 12 11 12 14 7 13 14 12 7 18 23 24 18 17 17 16 25 25 22 16 13 13 14 17 20 24 26 34 40 45 53
9 9 10 10 10 9 9 8 8 7 6 6 8 10 11 12 14 15 13 13 12 11 9 12 16 16 15 15 14 17 27 19 17 18 16 13 14 15 20 22 25 40 44 45 48
9 9 8 8 9 10 10 9 8 8 7 6 6 7 9 11 15 16 10 9 8 8 14 12 12 13 13 15 13 13 15 16 14 12 16 12 14 15 18 19 25 34 45 46 44
7 7 8 8 8 7 8 9 9 9 8 7 6 6 6 23 20 13 12 11 8 7 16 14 11 13 12 12 11 9 13 13 10 12 13 13 14 15 15 20 24 30 42 46 44
8 7 6 6 7 7 7 7 8 9 9 8 8 7 6 16 12 12 12 14 14 14 15 15 10 12 11 10 10 8 8 9 9 10 11 15 14 14 15 18 23 29 37 43 45
9 8 6 6 6 6 7 7 6 8 9 9 8 7 21 11 12 10 13 16 15 16 11 13 10 10 10 9 9 8 9 8 9 9 11 13 16 16 16 16 22 28 32 37 41
11 9 8 7 6 5 6 7 6 6 8 8 8 8 22 7 11 13 11 13 12 13 12 10 9 8 8 8 7 8 8 11 9 9 10 13 19 13 17 17 20 27 30 33 37
13 11 10 8 7 6 5 6 6 6 7 8 11 26 19 12 14 13 11 10 10 10 11 10 8 7 7 8 9 9 12 11 10 10 11 13 24 18 17 18 18 23 28 30 34
20 14 11 10 8 7 5 6 6 9 16 19 22 38 25 14 13 11 11 10 10 10 8 10 9 9 7 9 13 11 11 10 11 12 10 14 42 36 25 17 18 20 24 29 31
29 20 14 11 9 6 5 8 26 40 51 28 21 14 9 14 10 12 12 11 9 8 10 10 10 11 10 9 9 8 10 10 10 12 12 17 54 60 34 21 17 20 20 24 29
39 28 19 13 10 6 12 26 13 15 12 10 14 19 16 10 10 12 9 11 8 10 9 8 10 7 7 8 9 10 10 11 9 12 13 13 35 37 28 19 18 17 19 21 23
40 33 24 16 10 29 24 14 15 14 12 9 8 7 11 13 10 8 10 10 7 8 10 9 6 5 6 8 10 10 10 11 10 11 11 12 15 19 19 16 16 17 18 19 22
36 31 26 18 20 21 16 18 13 12 13 8 6 6 6 6 6 6 6 8 9 8 7 8 6 5 5 8 8 11 8 9 9 14 19 14 22 24 19 20 19 17 18 18 20
32 28 25 21 19 12 19 17 15 14 18 6 5 5 5 5 5 5 6 6 7 8 8 7 7 6 5 6 7 9 8 8 9 11 18 19 22 19 20 21 21 18 18 18 19
30 28 25 21 42 18 16 19 15 15 18 8 7 8 6 5 6 7 6 6 6 6 8 7 5 5 4 4 5 6 8 8 8 10 17 15 20 19 18 21 17 17 18 18 19
36 27 24 23 21 23 23 16 15 17 8 8 8 8 8 9 7 8 8 9 9 10 11 8 7 5 4 5 4 6 8 14 15 15 16 12 20 22 17 16 14 24 21 18 19
38 29 22 27 36 19 25 16 22 13 12 6 6 7 9 9 9 7 9 10 8 8 9 11 10 6 4 5 6 6 7 13 22 18 15 12 15 15 15 14 15 19 28 16 19
37 38 30 32 30 35 27 18 17 14 9 8 7 7 8 7 7 7 9 9 7 7 11 8 10 6 5 5 4 6 8 7 11 10 13 11 10 8 9 14 17 13 10 11 17
58 69 40 29 26 27 25 27 13 10 8 8 10 8 9 8 8 7 8 8 8 6 6 8 11 6 6 5 5 5 5 8 9 19 21 13 15 14 13 14 16 16 14 9 10
70 45 27 24 25 34 30 23 18 14 12 12 11 9 8 8 8 8 8 6 6 7 6 7 9 8 7 8 7 6 6 6 7 10 15 19 15 10 16 15 15 13 10 8 8
62 40 22 30 30 30 32 25 20 17 14 12 10 10 9 8 8 8 8 7 5 5 8 7 8 12 9 6 5 6 7 7 10 17 11 13 13 7 12 11 10 10 9 8 8
63 46 32 28 31 24 20 20 19 19 18 17 14 10 8 8 12 10 8 5 5 6 7 7 10 15 12 8 7 7 6 6 6 8 16 15 13 8 10 12 12 10 9 10 9
79 43 27 23 23 21 21 20 18 14 14 15 18 15 13 11 9 11 9 7 6 6 12 9 10 15 13 13 9 10 7 7 7 8 10 10 13 11 12 13 11 10 9 9 8
71 49 36 46 35 38 58 44 42 35 22 27 30 27 22 19 13 10 8 8 7 8 11 9 17 13 10 9 9 9 8 7 8 9 11 9 10 12 12 13 13 9 9 9 9
98 61 71 53 37 31 34 44 38 40 28 29 40 36 35 42 46 52 30 17 11 8 9 8 18 16 15 10 10 11 9 7 7 8 8 8 8 6 8 8 13 10 10 10 9
98 93 96 71 42 32 25 24 40 29 33 32 27 36 48 41 46 41 31 23 18 18 15 14 13 22 22 13 12 14 11 9 8 6 7 9 9 8 9 11 12 13 11 11 10

GFSSW_850_rhum_009.txt.gz
RH
9 10 11 10 9 9 9 8 8 7 7 8 10 11 12 12 9 9 10 6 10 10 13 11 25 15 36 41 41 40 54 63 44 27 19 18 30 34 36 51 52 52 56 66 66
9 8 8 9 10 10 9 9 8 8 8 7 6 7 8 11 11 8 4 5 12 17 15 12 23 33 30 26 21 22 40 34 25 21 17 17 29 34 37 46 56 55 62 61 68
8 8 8 8 8 8 9 10 9 9 8 8 7 6 6 8 10 11 12 9 14 15 14 12 13 17 24 21 17 17 27 23 19 18 14 16 17 21 33 43 48 55 65 64 69
9 8 7 7 7 8 7 7 8 9 9 8 8 7 7 6 19 15 12 10 10 10 12 13 12 12 16 18 14 18 16 17 18 17 16 16 15 22 22 36 42 53 64 66 69
11 10 8 7 6 6 7 7 7 7 8 9 9 8 7 11 12 10 14 12 10 8 8 14 12 12 16 15 14 16 15 14 15 18 14 14 16 21 22 37 43 46 53 62 65
14 12 10 9 8 7 6 6 7 7 6 7 8 8 7 26 7 13 11 14 13 11 7 12 13 12 12 14 14 12 12 14 13 12 16 17 15 19 26 40 44 45 45 52 59
26 18 14 11 10 9 7 6 6 7 6 6 7 8 9 7 8 16 14 12 14 16 14 14 15 15 11 14 12 10 12 10 10 10 13 17 35 19 25 31 44 47 47 46 50
32 28 22 15 12 10 9 7 6 6 6 6 7 9 16 8 7 9 15 13 14 14 15 11 13 13 11 10 10 12 11 13 11 11 10 18 40 25 21 30 38 43 46 47 45
39 33 27 21 14 11 10 8 6 6 6 6 9 15 40 12 12 7 11 12 12 12 14 12 10 10 9 12 15 12 14 14 12 10 14 17 31 18 17 28 31 37 40 44 46
40 38 33 25 18 11 10 7 8 19 26 25 24 50 17 12 13 12 12 13 11 10 10 10 11 13 12 13 18 16 14 12 14 13 15 26 30 25 19 21 29 32 34 38 41
43 39 34 26 20 12 9 9 20 25 42 40 33 16 9 11 12 13 12 11 10 9 14 10 16 16 13 10 10 11 12 12 11 13 17 32 36 31 21 22 26 31 32 34 37
36 35 32 27 21 12 17 23 18 14 15 13 12 20 21 17 19 11 11 11 11 15 12 12 16 13 11 10 9 10 12 13 11 13 17 34 33 25 20 20 21 25 31 33 35
27 29 28 26 18 26 25 18 15 13 14 12 10 10 9 15 20 16 11 11 13 14 11 13 13 11 10 11 12 11 13 13 13 12 15 32 43 38 26 21 22 24 26 30 32
25 26 25 25 24 21 18 21 16 14 21 13 8 7 8 9 11 15 11 11 12 12 11 12 10 10 10 9 9 15 10 11 11 13 21 20 36 46 33 36 37 29 22 26 30
42 33 27 27 28 22 17 18 16 17 30 9 7 6 6 7 8 13 12 10 12 13 10 10 11 11 10 7 7 12 10 11 11 13 24 21 26 32 34 41 44 32 21 22 24
41 32 31 24 24 23 24 16 20 24 29 11 6 6 7 7 7 6 11 8 7 10 11 11 8 7 9 7 6 6 10 11 12 14 19 23 23 30 31 40 43 25 20 20 21
34 27 26 32 19 23 22 20 25 27 12 10 9 8 6 7 7 6 7 8 9 11 12 9 9 8 6 8 7 6 10 16 19 20 23 16 24 31 19 20 21 22 20 20 20
53 28 19 20 20 24 31 29 34 18 15 10 10 9 10 8 7 6 9 9 8 8 13 14 14 9 8 7 8 7 8 13 26 24 20 16 18 18 16 18 17 20 20 20 19
54 28 17 11 25 37 44 47 25 19 14 12 13 12 11 10 11 8 10 9 8 7 13 12 13 9 8 7 6 8 9 7 12 17 23 16 14 12 17 17 17 18 20 18 18
62 59 14 23 35 38 42 44 25 15 16 19 24 15 19 14 12 12 10 9 10 9 9 12 19 10 8 7 6 6 7 10 9 16 21 16 19 20 18 20 22 23 21 17 16
73 62 14 28 28 38 46 38 28 22 20 20 22 22 19 17 14 14 11 9 8 9 8 8 11 11 11 10 8 8 8 8 10 10 16 22 18 14 18 24 24 20 18 18 15
83 61 9 27 38 28 34 32 29 27 25 25 22 23 23 20 18 15 13 10 7 8 10 9 11 14 12 9 7 7 10 8 15 16 18 14 14 12 9 18 19 18 16 11 12
83 66 24 37 42 36 29 26 24 22 20 21 23 22 21 23 27 19 15 9 7 8 10 10 11 16 16 11 9 9 8 9 7 14 17 26 15 8 7 11 10 12 14 13 11
96 63 41 44 33 33 46 55 56 43 34 28 28 30 31 34 28 30 24 13 8 7 14 20 12 13 16 16 12 16 9 8 8 10 10 10 10 12 12 18 18 14 11 9 11
87 70 50 69 59 58 54 68 52 46 36 30 43 47 42 55 46 41 46 45 34 25 17 15 15 12 13 12 11 9 11 9 10 9 12 10 9 10 10 21 22 13 13 10 11
96 77 81 74 60 50 46 38 34 30 43 44 41 52 46 77 72 72 57 55 52 34 35 28 28 24 22 14 11 11 10 11 8 8 9 9 10 11 10 8 18 16 10 8 11
87 92 98 86 61 56 51 43 51 39 44 38 45 39 54 42 45 57 46 40 43 46 40 34 36 34 23 19 18 18 11 11 13 8 9 11 9 10 11 13 16 14 13 9 9

GFSSW_850_rhum_015.txt.gz
RH
12 11 10 8 8 7 8 8 8 8 9 9 9 8 8 7 7 8 9 4 5 12 22 32 59 73 77 90 88 65 72 62 47 46 47 49 58 57 56 66 60 62 57 68 74
22 18 13 12 10 9 7 7 7 7 7 8 8 8 8 8 7 7 8 10 9 7 11 31 63 87 94 82 76 68 68 51 35 33 48 48 51 56 61 63 65 65 68 73 83
29 24 22 21 16 12 10 8 7 7 7 7 7 8 8 8 8 7 11 13 10 7 8 11 37 72 63 48 68 59 64 39 32 26 41 46 50 53 61 64 67 72 74 84 85
43 40 34 27 23 20 15 12 10 8 6 6 7 7 7 8 10 14 12 11 6 6 13 20 24 42 34 47 43 36 40 41 30 21 42 46 48 53 55 51 56 43 56 76 87
40 39 39 37 31 23 20 17 12 10 9 6 6 6 7 9 8 9 11 13 7 7 12 24 25 22 17 17 19 34 28 20 19 18 29 43 48 50 54 52 55 62 68 75 82
37 34 33 32 34 30 23 19 16 11 10 9 6 6 7 12 8 8 7 7 13 11 17 18 16 18 15 15 17 16 17 16 15 13 30 44 46 46 52 56 67 67 74 78 72
36 33 30 28 29 30 27 21 18 14 10 9 8 6 7 8 8 9 11 12 9 12 14 12 11 14 13 16 14 14 17 14 14 12 30 36 46 52 49 61 70 73 74 75 71
34 28 26 25 25 26 27 24 18 14 10 8 7 7 10 6 7 8 11 10 12 14 13 13 13 13 17 16 16 13 14 17 13 12 14 31 44 42 56 66 68 71 74 76 76
28 26 24 22 22 22 25 21 14 11 14 17 14 13 14 9 7 7 8 9 10 14 14 18 19 17 15 20 20 18 22 18 16 12 25 26 39 49 58 63 67 69 72 75 77
32 26 24 24 22 21 22 16 21 35 37 42 45 43 15 10 20 19 13 9 11 15 20 19 16 20 21 22 28 21 17 16 16 13 24 29 37 51 57 61 64 66 68 72 76
28 27 26 22 22 22 22 24 25 31 30 26 33 24 14 14 13 16 16 9 11 15 23 18 25 28 21 18 16 15 15 17 15 13 22 29 36 55 54 57 63 65 66 70 71
20 16 16 18 21 26 23 28 37 42 48 20 16 18 12 14 18 13 19 11 15 19 17 18 23 21 18 18 17 16 16 16 14 13 18 28 34 50 51 53 57 62 65 68 68
19 17 14 11 20 24 23 28 27 30 37 18 16 16 16 15 22 14 17 10 17 20 18 19 17 15 17 18 17 17 18 15 15 15 16 32 39 40 51 48 50 52 55 60 61
20 16 16 11 17 15 26 23 22 26 27 19 14 12 14 14 24 12 15 12 16 18 18 18 13 15 16 17 18 23 15 13 13 16 20 29 47 44 42 54 50 50 52 52 53
28 17 16 17 19 14 26 23 20 23 39 17 12 11 12 12 10 16 11 17 18 17 18 20 17 16 17 15 16 17 13 15 16 17 18 20 34 34 38 45 44 43 46 50 51
33 23 19 22 18 17 14 20 23 22 33 17 11 11 13 11 9 14 15 18 14 16 16 16 13 14 15 13 13 13 13 13 18 22 27 18 25 22 50 35 34 33 38 42 46
41 27 17 23 23 16 14 27 27 33 18 20 22 20 18 12 10 12 17 20 21 23 23 19 16 12 12 15 15 15 17 24 21 27 23 18 30 19 26 32 27 30 30 34 37
49 30 16 34 51 19 22 34 36 23 23 23 25 23 18 22 12 13 18 20 19 16 22 25 25 17 13 15 16 18 17 29 24 30 21 21 29 23 19 22 26 23 26 28 33
50 24 27 54 46 52 52 51 35 30 26 31 26 30 34 29 26 27 24 18 18 15 18 26 24 13 13 11 12 15 17 13 16 23 23 24 20 16 16 20 27 26 24 26 29
60 36 40 45 48 49 72 69 45 30 29 32 36 37 46 38 33 36 30 18 18 20 13 16 18 13 11 12 12 12 12 14 21 21 22 20 21 20 18 18 28 31 27 24 29
62 62 32 47 49 61 87 78 48 34 30 35 39 42 39 40 33 36 34 27 32 34 25 17 16 14 12 14 14 15 14 14 16 18 17 18 15 13 17 19 21 28 27 25 26
81 92 42 40 60 71 86 73 46 40 40 38 34 37 41 44 45 34 36 32 38 40 54 42 23 17 14 13 9 10 12 16 17 18 18 14 14 11 13 14 19 17 18 16 15
90 92 51 61 86 73 62 54 52 52 51 45 44 43 47 46 46 53 51 42 42 42 58 54 46 23 17 14 13 14 13 12 13 15 15 16 15 11 12 14 13 16 14 9 11
96 96 71 65 68 74 79 61 68 59 48 43 43 48 54 50 57 59 53 46 44 41 47 47 52 38 30 20 18 17 14 12 13 16 14 13 12 12 12 13 13 13 9 10 14
89 90 96 95 84 92 73 64 74 80 67 52 49 52 63 71 69 63 53 60 48 46 48 56 61 43 40 34 29 23 16 12 14 12 14 12 13 11 14 15 13 7 8 8 20
90 92 87 91 80 86 78 69 72 69 79 77 62 51 55 69 65 72 66 68 66 52 54 58 61 54 44 29 28 25 16 14 12 11 12 11 14 11 10 10 10 7 6 9 16
97 92 100 97 84 82 78 71 69 64 68 75 53 57 55 54 62 58 59 57 53 57 59 59 62 62 59 39 37 30 18 15 12 12 12 13 11 11 10 11 11 7 6 7 5

GFSSW_850_rhum_021.txt.gz
RH
47 43 40 38 33 26 22 16 11 8 8 8 8 8 8 8 9 9 9 8 8 9 21 39 54 73 90 86 85 79 64 55 41 44 41 55 52 58 60 63 61 66 70 74 96
47 44 40 36 35 37 34 26 20 13 10 8 7 7 7 8 8 9 10 10 9 9 17 41 79 86 81 79 80 70 64 45 35 33 27 49 48 56 58 58 57 66 76 75 95
45 41 39 36 33 30 31 35 29 21 15 11 9 8 7 7 8 9 12 11 9 8 8 44 77 80 74 82 76 73 58 44 33 31 29 38 49 53 54 56 52 62 78 85 92
32 31 31 30 28 27 27 28 31 30 22 17 12 10 7 6 11 9 13 13 13 9 12 82 79 69 62 67 71 67 55 47 34 31 33 39 48 49 54 49 50 62 73 80 85
28 27 26 26 25 25 25 25 25 28 29 22 18 11 9 8 7 9 12 10 15 14 48 69 72 61 50 56 56 62 41 36 33 31 26 31 45 43 52 51 54 66 74 75 79
14 14 14 15 17 19 22 22 25 26 28 26 20 15 12 11 6 8 9 10 14 51 58 65 67 55 41 25 41 33 30 18 21 22 18 28 33 46 44 58 63 71 72 72 75
12 11 10 10 9 10 13 23 25 25 27 26 21 18 15 9 6 9 9 9 10 13 54 39 35 47 26 18 21 19 16 14 13 14 15 23 44 45 47 58 64 70 74 74 77
13 12 11 9 8 7 25 24 23 23 22 21 18 16 17 9 8 13 16 11 12 15 25 30 28 33 22 17 15 16 16 15 12 12 17 23 18 34 52 56 62 67 73 76 79
13 12 10 9 8 8 22 22 27 40 32 26 23 16 18 11 8 7 14 11 14 32 28 27 26 24 20 17 16 15 17 18 15 12 23 30 19 23 50 52 58 64 67 72 75
13 13 8 7 8 11 19 25 31 34 54 51 50 31 15 16 10 7 12 16 31 34 30 25 23 23 20 18 18 17 17 16 17 13 16 26 27 31 47 50 54 60 63 68 70
13 13 9 6 7 14 22 27 30 42 34 54 54 38 25 17 28 18 8 19 19 27 23 24 22 25 20 17 14 13 14 15 13 12 18 22 26 31 46 50 51 57 60 63 65
14 14 13 6 6 15 26 31 42 48 54 22 22 30 26 26 22 26 11 11 15 20 20 25 24 17 16 19 17 14 14 15 14 12 13 15 18 18 38 48 49 55 58 60 62
18 16 16 7 8 9 20 39 35 30 57 33 28 30 26 23 26 20 16 11 13 15 18 20 17 17 20 20 18 15 13 13 15 13 12 15 16 20 38 43 48 53 56 58 57
20 22 24 10 14 12 34 40 26 35 35 22 21 21 23 20 22 20 20 14 12 15 15 15 14 19 20 20 16 14 12 12 15 16 18 17 20 25 24 43 46 50 55 58 56
22 28 28 28 28 39 42 31 21 45 20 19 15 16 20 18 16 20 16 16 12 12 16 17 19 21 22 19 17 13 12 13 14 16 16 15 20 17 34 39 45 45 49 54 54
23 26 32 40 40 43 39 24 38 29 29 20 13 14 19 17 14 19 18 17 14 13 13 12 15 16 17 16 17 14 16 16 18 16 22 17 18 17 19 25 31 39 46 51 54
31 28 39 45 45 41 39 28 30 32 20 25 24 22 21 18 14 18 19 20 18 19 20 16 16 14 13 15 15 15 15 20 20 21 21 14 18 18 15 21 16 29 40 46 52
29 29 45 48 42 37 40 28 36 23 28 27 27 25 22 26 20 20 19 20 17 13 14 19 22 15 13 15 16 17 14 14 21 16 15 19 20 16 13 12 19 20 28 37 47
34 26 48 46 34 39 47 28 32 44 45 42 31 31 29 28 27 25 21 17 18 16 16 17 17 14 13 12 12 17 19 11 14 19 16 13 13 14 14 13 16 19 21 28 34
41 35 50 43 51 53 43 51 53 51 47 38 44 37 40 36 30 28 28 38 27 30 29 20 22 15 14 12 12 14 12 18 14 18 18 14 18 13 18 15 16 18 18 21 24
43 56 51 46 48 51 55 57 53 55 55 45 44 44 40 41 36 32 42 37 36 37 34 28 19 18 16 16 16 16 16 14 13 14 12 12 10 15 17 20 17 16 16 17 21
68 57 54 45 46 56 51 56 49 49 61 49 40 43 44 42 38 39 46 43 34 40 43 39 21 20 19 14 11 13 14 15 16 24 15 12 10 11 11 14 17 13 15 18 24
100 93 57 59 69 70 64 58 46 54 60 68 54 47 44 48 44 45 46 43 37 40 46 36 33 28 22 15 14 16 14 13 12 13 21 15 11 8 12 14 12 12 12 14 17
94 66 67 72 78 62 68 61 60 56 65 86 75 48 50 50 48 48 46 39 39 43 49 39 36 31 24 22 26 26 17 15 14 17 17 16 12 11 12 15 14 14 15 12 8
85 81 90 72 60 63 67 69 65 62 55 64 96 95 72 62 51 54 51 43 37 44 36 37 38 37 33 31 28 28 24 21 20 17 19 14 14 13 13 14 12 12 15 10 8
96 88 99 91 78 72 66 61 67 59 63 57 93 77 84 92 59 64 61 54 49 41 40 38 37 44 36 27 25 28 25 24 22 20 19 16 16 11 13 13 14 11 10 10 9
86 90 100 99 78 92 63 58 61 61 60 63 83 82 63 55 58 54 51 49 45 49 49 46 42 43 36 31 30 31 24 22 20 18 17 20 15 12 13 14 15 14 14 12 7

GFSSW_850_rhum_024.txt.gz
RH
49 46 44 40 37 34 33 34 27 19 15 10 8 8 8 8 8 8 9 10 9 8 12 72 78 72 67 58 62 58 40 30 27 28 30 36 37 43 45 47 46 49 48 63 76
38 37 36 34 33 32 31 30 31 31 20 16 11 8 8 7 8 8 10 10 10 8 39 61 68 64 58 48 52 46 35 26 22 21 22 28 34 42 41 42 42 51 53 69 75
26 26 26 26 26 26 27 27 28 29 31 24 17 11 9 8 12 10 9 10 10 9 36 47 48 50 38 42 43 38 34 24 22 22 22 23 34 38 35 37 39 50 62 70 72
12 12 11 12 14 17 20 22 25 27 28 29 24 17 12 8 11 18 14 13 12 19 36 41 45 43 34 39 38 38 32 30 24 23 21 19 28 35 35 32 37 49 59 65 68
12 11 10 9 8 8 8 12 15 23 26 27 28 22 17 24 11 10 12 12 12 37 36 37 42 34 27 28 31 38 26 25 25 23 21 17 24 27 34 38 38 50 58 61 62
11 10 9 7 8 7 6 7 20 23 25 26 27 26 22 17 8 9 10 9 34 40 36 34 36 30 25 24 28 25 28 24 15 15 16 14 19 27 30 39 44 51 54 56 58
10 8 6 6 6 6 6 14 22 23 24 25 26 26 36 16 9 10 31 36 46 42 34 30 30 32 22 22 18 24 22 14 12 12 13 13 16 25 27 41 44 48 50 52 55
9 7 6 6 4 5 6 14 22 24 25 23 24 25 32 18 15 10 30 41 49 42 30 31 32 32 22 15 13 15 14 16 13 12 12 14 18 20 29 39 42 46 49 51 53
10 8 6 5 4 4 12 16 24 28 29 30 26 47 22 16 14 12 31 34 44 38 34 31 32 26 23 21 15 12 16 16 15 12 13 16 17 15 28 34 37 44 47 50 53
9 9 6 5 5 6 11 21 28 35 50 55 69 45 26 16 17 11 26 22 41 38 30 27 25 15 17 19 21 16 15 14 15 13 12 14 17 14 23 28 32 41 45 48 50
13 10 7 5 6 11 8 42 44 58 44 39 34 24 24 18 24 12 14 23 32 33 20 17 16 16 12 12 12 11 13 14 13 12 14 15 14 14 20 28 28 37 43 46 48
15 12 8 6 7 13 21 35 51 53 39 25 24 28 32 31 22 14 13 19 18 24 14 16 18 11 10 9 11 12 12 13 12 11 12 13 14 13 16 26 28 34 40 43 45
18 15 9 7 9 28 47 52 59 55 35 20 22 20 22 25 21 18 11 13 15 17 14 14 12 10 10 12 13 12 13 12 13 12 11 13 15 14 11 16 24 29 35 39 43
24 21 13 8 33 33 44 50 59 53 31 12 18 20 20 20 19 18 10 12 11 15 12 12 10 12 12 13 12 13 10 10 11 13 18 12 19 15 13 16 18 24 29 35 39
26 21 15 23 36 49 51 56 54 59 16 14 14 18 18 17 13 16 17 8 8 11 12 14 12 13 14 14 11 11 6 9 10 11 13 14 16 15 13 15 14 18 22 31 35
30 22 19 51 58 53 54 50 60 31 17 15 12 14 16 17 14 14 17 10 9 9 10 11 9 10 12 11 11 10 9 8 10 10 16 15 16 16 14 15 14 17 22 29 34
29 24 32 36 48 50 43 49 25 19 12 20 18 15 14 13 15 14 16 18 18 16 15 12 11 10 10 13 11 12 12 15 14 13 15 12 14 15 11 10 12 12 15 26 32
30 25 46 47 48 44 48 28 25 15 26 24 23 21 20 14 14 13 16 17 15 13 12 15 16 11 10 12 13 14 11 11 16 11 10 11 15 13 10 10 10 11 11 19 30
29 48 46 43 41 53 42 22 16 42 38 37 25 23 18 18 18 16 14 16 14 12 15 14 14 9 10 10 10 14 14 8 8 10 10 8 10 9 10 10 10 10 11 12 24
41 50 40 42 45 50 32 27 32 34 35 32 35 28 30 25 24 19 14 21 15 12 13 14 16 10 10 9 9 10 10 11 9 15 16 9 10 11 11 12 11 11 10 11 17
54 40 41 46 40 26 27 30 30 29 36 36 37 36 32 32 28 21 21 27 24 16 24 16 14 13 11 12 12 12 12 11 9 9 11 11 8 7 9 11 11 10 11 11 14
54 28 46 46 27 29 32 38 35 29 32 34 33 30 34 34 32 28 32 31 28 27 28 18 16 18 14 10 9 9 11 11 12 16 11 10 7 6 7 7 10 9 10 10 11
59 51 48 43 38 38 34 34 32 34 45 49 50 39 34 38 40 34 35 30 29 28 29 23 20 20 17 13 11 12 11 10 10 9 16 13 8 7 10 11 12 11 11 12 14
61 38 35 42 44 41 45 39 38 34 38 38 87 58 48 32 31 37 34 29 28 28 42 35 22 20 18 17 14 15 12 11 11 13 12 12 10 9 8 10 10 9 10 11 15
65 45 62 48 47 50 50 39 43 49 37 35 83 94 91 54 34 34 36 31 26 28 24 26 29 27 21 22 19 14 13 12 13 13 14 10 11 10 9 9 10 10 10 10 12
64 66 69 75 59 48 46 45 42 46 44 45 52 68 63 94 66 65 48 36 35 30 29 24 32 30 28 22 21 20 18 15 13 12 13 12 12 9 9 11 11 10 11 10 10
92 86 92 66 58 52 47 51 56 47 44 44 43 45 45 55 60 53 42 37 36 39 34 32 28 34 30 22 22 26 20 18 17 15 15 17 14 12 12 12 11 10 10 10 11

GFSSW_850_rhum_027.txt.gz
RH
27 27 28 28 29 30 30 30 31 31 31 22 15 12 8 8 8 9 11 15 13 9 16 49 52 53 52 47 42 39 42 37 23 28 23 22 21 26 32 35 37 38 50 62 68
11 11 12 13 14 17 20 23 25 28 29 30 24 15 12 9 8 16 13 12 11 9 30 43 44 46 42 40 35 34 50 72 18 15 18 21 22 25 29 32 36 36 48 62 60
10 10 9 8 8 7 7 8 12 21 24 28 29 22 16 12 25 13 12 10 10 10 23 35 39 40 33 28 28 27 38 63 17 17 16 19 23 24 22 28 33 39 52 57 56
8 7 7 6 6 7 7 6 5 6 13 22 27 28 22 13 14 26 10 11 10 12 21 29 34 36 27 24 23 25 26 52 17 18 17 17 22 24 23 22 29 40 50 54 54
6 6 5 5 4 4 4 4 5 11 22 23 26 26 25 30 14 12 11 14 15 23 19 26 29 31 26 19 20 22 20 21 22 20 17 16 18 26 23 23 28 40 48 52 52
5 5 4 4 4 4 3 3 3 11 21 23 25 26 28 24 12 10 18 11 24 32 18 22 24 26 24 18 18 18 20 20 18 17 15 14 14 20 24 25 29 39 46 48 49
5 4 4 4 4 3 3 2 4 11 21 25 25 25 40 25 12 7 15 24 31 29 17 20 20 24 22 18 17 18 20 19 19 14 13 14 14 19 23 29 30 38 41 44 46
7 6 5 5 4 3 3 4 8 15 20 24 25 28 36 21 22 11 17 22 27 29 21 19 19 20 21 17 16 18 18 22 15 12 12 13 16 14 21 29 30 35 38 41 43
8 7 6 5 4 4 5 8 11 18 23 28 33 56 28 21 20 17 12 22 26 29 27 22 20 20 20 19 16 14 18 18 16 12 12 12 16 17 19 26 29 32 36 36 41
9 8 6 6 5 4 7 13 28 39 72 72 62 45 31 18 16 15 12 19 26 28 27 23 22 21 19 20 23 16 14 13 14 12 12 13 14 16 20 21 24 30 33 36 36
11 9 8 7 5 6 18 28 35 53 60 36 29 25 18 17 15 12 12 20 25 26 24 23 24 26 17 19 16 12 12 12 11 10 12 14 16 13 14 18 19 26 31 34 36
12 10 8 8 12 24 29 28 39 42 34 22 17 17 24 19 17 11 15 17 19 27 19 18 23 15 13 10 13 13 13 12 10 9 11 13 14 11 12 15 18 22 28 32 35
18 12 8 7 27 29 35 34 35 36 28 15 12 12 11 22 19 15 11 13 16 23 20 14 11 10 8 8 9 11 11 11 11 10 10 12 15 14 11 13 18 20 26 29 32
22 17 11 7 26 32 28 32 33 38 29 10 11 10 10 14 19 17 9 11 14 20 20 14 8 9 9 8 8 9 7 9 10 11 14 11 19 15 12 12 16 18 22 27 29
20 19 12 36 50 39 33 29 34 36 21 8 11 14 12 12 10 16 11 10 12 13 14 16 10 10 10 9 7 8 6 8 9 11 12 13 16 14 12 13 12 13 18 23 26
20 20 17 34 32 29 30 27 33 30 22 11 10 13 13 12 11 12 13 9 11 10 10 10 8 7 9 8 7 7 8 7 8 8 14 13 14 15 12 12 11 11 13 17 21
18 28 34 46 32 26 29 24 23 20 8 18 18 12 12 14 14 11 15 11 12 15 13 11 10 8 7 9 8 9 9 12 11 10 13 10 12 13 10 9 10 10 11 13 17
19 40 46 36 27 26 29 20 26 12 24 22 23 21 21 13 13 12 14 17 10 10 10 13 14 10 8 9 10 11 9 10 15 10 8 8 13 11 9 8 8 10 10 14 17
28 32 30 26 27 27 26 21 16 20 27 27 24 21 18 15 12 14 14 15 12 9 12 12 13 8 8 7 8 11 11 7 7 6 7 6 7 7 7 8 9 9 10 11 15
50 31 28 25 30 27 22 22 29 24 20 21 29 25 30 21 17 16 14 12 13 10 10 12 14 9 8 8 8 9 8 10 8 13 12 8 9 8 10 10 9 10 10 10 11
44 22 29 26 26 19 20 22 23 19 18 21 24 29 35 39 37 20 15 16 14 13 12 12 12 12 9 10 11 10 11 9 7 7 10 12 8 6 8 9 10 9 9 10 10
37 24 30 29 18 16 24 19 21 17 22 23 26 23 29 36 46 34 21 24 22 21 20 12 14 18 11 8 8 8 10 10 12 15 8 8 8 6 5 6 8 9 9 9 9
44 29 26 25 24 24 22 21 24 28 23 29 29 41 43 39 52 57 39 26 22 22 26 16 18 21 16 10 9 10 9 8 9 8 12 10 9 7 7 7 8 8 9 9 10
48 29 26 24 23 27 32 30 28 23 23 23 41 39 44 39 30 42 52 32 23 22 34 31 22 21 18 14 11 13 9 8 9 11 10 10 8 9 9 10 10 10 9 10 11
50 34 42 37 31 32 31 28 38 33 26 25 64 52 47 56 44 74 59 38 23 25 23 23 31 21 16 12 10 11 10 9 10 10 11 8 10 8 9 10 10 10 10 11 13
62 55 49 50 41 36 36 37 30 34 32 30 35 36 32 56 55 61 64 48 44 32 28 21 30 25 22 14 16 16 11 10 9 10 10 9 8 7 8 8 9 9 9 10 11
96 85 84 55 40 41 39 34 31 36 39 37 32 33 31 36 37 33 38 33 30 32 33 31 26 28 30 21 20 23 15 12 10 9 9 12 10 8 9 10 10 11 11 10 10

GFSSW_850_rhum_030.txt.gz
RH
9 9 8 8 8 7 7 9 12 16 21 27 30 25 16 11 8 8 8 11 13 12 10 38 34 48 53 50 55 48 60 65 61 39 43 21 28 33 31 33 37 47 60 72 73
6 5 5 5 5 5 6 6 6 6 7 15 24 29 26 15 11 9 10 10 12 14 13 33 32 41 44 42 37 36 91 70 42 40 34 23 21 25 27 29 38 52 62 66 74
4 4 3 3 3 3 3 3 3 4 5 7 16 25 28 21 22 14 12 11 11 12 18 27 28 34 36 34 29 28 59 37 34 33 20 22 19 22 23 29 41 53 58 62 72
4 3 3 3 3 3 3 2 2 3 4 14 20 23 26 22 21 21 12 12 11 11 19 22 28 29 32 28 25 25 49 54 39 32 16 28 30 20 25 27 37 50 54 59 66
5 5 4 4 4 3 3 2 2 2 4 11 22 23 26 42 21 15 12 12 12 14 20 19 25 28 30 25 22 20 36 34 36 30 14 27 49 34 33 25 35 46 50 51 57
6 5 4 4 4 3 3 3 2 3 7 14 23 27 27 35 21 17 18 11 14 17 20 17 20 25 27 23 20 18 18 25 30 30 15 14 27 32 30 24 34 42 47 46 48
7 6 5 4 4 3 3 3 4 6 8 16 24 35 44 28 18 9 15 22 20 20 17 15 16 20 24 23 20 16 19 17 18 17 14 13 14 19 26 25 30 39 44 44 44
8 6 5 5 4 3 3 4 4 12 23 13 23 36 40 24 18 16 7 16 20 22 18 13 15 17 19 21 19 18 16 23 18 16 14 13 16 20 27 24 29 35 40 42 42
8 7 6 5 4 4 3 11 18 23 34 27 39 54 31 22 24 20 11 11 18 23 21 15 15 16 16 21 24 19 22 20 20 15 14 12 15 12 25 23 30 31 36 39 42
8 8 6 6 5 14 19 21 25 32 68 62 66 52 35 21 18 19 16 11 16 20 22 19 17 16 16 19 30 23 20 17 20 16 13 13 14 15 19 42 27 32 32 36 39
10 10 8 6 9 24 28 21 20 46 27 38 33 27 18 18 14 15 16 10 16 20 24 21 22 21 18 17 17 17 16 14 12 12 14 13 15 17 24 43 42 28 32 32 35
10 8 8 6 14 24 27 26 24 24 24 20 20 20 25 23 16 13 14 12 16 23 21 23 25 18 15 15 17 17 16 13 10 9 10 13 13 14 24 46 44 30 47 32 32
12 10 9 7 19 26 23 26 22 22 23 18 14 14 12 15 17 14 12 11 14 20 24 24 20 16 16 17 15 17 17 14 12 9 9 13 14 14 17 17 18 23 35 28 32
12 12 11 8 22 36 23 19 19 21 23 11 8 8 10 8 12 17 11 11 14 18 22 22 15 16 17 16 14 16 13 12 12 11 13 10 17 18 14 14 15 17 22 25 30
13 13 13 35 28 34 20 18 18 22 29 8 7 11 7 7 7 13 14 11 16 14 17 22 17 14 14 14 10 10 7 10 10 11 11 11 14 13 14 15 14 16 21 36 27
15 15 26 38 36 24 19 18 18 24 24 12 11 15 10 7 7 9 15 11 14 12 13 17 14 11 9 8 7 6 6 7 7 9 15 12 13 15 13 16 12 14 15 21 24
17 24 33 37 31 19 19 18 18 25 10 15 21 18 18 15 8 8 15 15 13 18 18 16 16 12 8 9 7 7 8 12 13 12 14 11 13 14 11 13 12 11 12 15 22
19 26 33 38 20 20 19 16 25 15 27 20 17 17 20 16 14 10 12 16 10 11 14 17 17 13 8 8 10 8 8 12 20 14 11 9 13 12 9 8 10 10 11 13 17
27 47 32 25 18 23 20 21 38 31 24 20 17 19 26 24 27 16 12 15 12 10 17 14 15 10 8 7 8 10 11 7 9 8 8 7 8 7 8 8 8 8 10 12 14
47 50 41 26 18 22 19 21 23 19 16 15 23 20 31 26 33 33 23 11 13 10 9 13 15 9 9 8 7 8 8 11 9 17 15 9 11 10 11 10 10 10 9 10 12
54 28 23 24 21 19 19 17 18 15 16 21 20 22 31 58 46 45 34 22 20 12 10 10 12 11 9 10 10 9 10 10 8 9 12 13 8 7 12 11 11 10 9 10 13
63 33 24 21 18 13 16 17 19 28 21 17 15 18 38 47 58 59 56 53 34 22 20 11 11 15 13 8 8 8 10 11 13 18 10 11 9 6 8 9 9 9 9 10 10
59 36 24 22 21 19 17 17 16 29 25 19 20 22 25 39 62 68 69 57 39 29 31 26 19 20 18 11 9 10 9 10 10 9 16 12 9 7 8 9 10 9 10 10 11
67 40 33 32 23 24 24 21 26 27 38 21 19 26 28 37 37 70 68 58 43 32 32 28 28 22 20 17 11 13 10 9 10 13 12 10 11 10 9 8 10 10 10 10 12
67 44 47 45 35 30 26 31 54 35 35 20 27 36 31 36 45 44 47 44 47 35 27 23 32 23 16 13 11 10 10 10 11 11 14 10 9 12 12 12 11 11 12 11 12
94 95 77 64 45 33 30 38 36 27 22 25 30 29 23 29 41 51 51 47 73 40 31 26 32 27 25 16 15 15 10 10 9 9 9 9 8 10 12 11 12 12 12 12 13
96 95 100 68 47 43 38 32 29 30 30 25 40 26 24 24 31 27 26 26 33 36 32 33 34 34 34 24 20 20 13 10 9 8 8 11 10 10 13 13 13 11 10 11 12

GFSSW_850_rhum_033.txt.gz
RH
3 3 3 3 3 3 3 3 3 2 4 5 8 23 30 22 13 12 10 9 10 11 20 33 22 39 62 74 66 65 91 93 78 56 46 46 40 37 46 55 58 58 77 83 78
3 3 3 3 3 3 3 3 3 2 2 4 6 13 25 28 22 12 7 9 9 12 14 21 37 34 53 60 60 63 87 81 46 41 46 49 46 35 49 58 69 79 83 75 77
4 4 4 4 3 3 3 3 3 2 2 3 6 18 22 27 24 10 10 7 10 12 13 13 30 31 44 50 46 49 60 46 41 36 48 45 45 45 50 64 72 79 82 81 81
5 4 4 4 3 3 3 3 3 2 2 3 7 18 22 27 31 19 11 12 10 12 13 16 26 29 36 47 39 42 38 42 38 36 34 34 37 48 39 56 68 72 76 78 79
5 5 4 4 3 3 3 2 2 3 5 5 10 24 24 33 25 19 12 11 12 12 14 17 20 26 32 35 34 31 43 33 26 35 34 33 35 37 45 58 65 69 72 72 73
5 5 5 4 3 3 3 2 3 3 5 13 11 27 32 55 17 19 14 13 10 14 14 16 20 22 27 29 33 26 34 35 33 29 34 36 32 42 48 56 60 67 72 70 69
6 5 4 4 3 3 3 4 12 14 14 22 22 22 54 17 16 20 18 14 11 11 13 15 20 18 25 30 28 26 26 32 34 29 28 37 44 51 47 52 54 62 70 66 67
5 5 4 4 3 5 10 20 21 22 26 29 31 40 57 4 17 19 21 21 18 16 12 14 18 18 16 22 25 28 26 31 34 32 28 28 43 29 38 48 52 53 62 64 63
8 6 5 4 4 12 22 22 20 19 33 48 44 58 56 22 20 15 15 21 21 21 21 16 16 16 14 23 29 29 37 28 23 18 19 19 30 30 32 40 47 49 48 53 58
9 7 5 5 5 18 26 25 20 44 38 52 67 76 23 14 21 19 11 10 17 19 21 19 18 18 19 24 36 36 34 27 24 18 21 21 21 36 31 35 53 58 47 46 47
9 8 5 4 7 21 24 25 21 23 23 18 19 34 25 26 22 20 19 16 10 18 28 23 27 25 21 20 20 26 28 25 19 16 20 22 20 32 52 67 59 48 53 46 45
12 10 7 4 10 27 31 20 18 19 18 16 17 18 14 20 23 22 19 18 11 20 22 28 32 22 18 17 19 21 26 26 18 14 18 19 18 36 52 57 63 61 54 51 44
15 12 9 6 16 27 27 18 17 16 19 17 14 16 17 15 16 21 19 17 12 18 22 30 26 21 21 19 19 20 23 23 22 15 12 16 20 46 40 41 47 44 45 49 41
18 14 9 13 19 24 26 18 17 17 31 16 10 11 12 14 13 14 19 16 15 16 20 26 22 23 24 22 19 23 18 19 19 20 22 12 28 26 35 40 46 48 53 43 37
29 17 12 33 31 34 23 17 17 18 30 8 17 15 15 11 7 7 16 16 17 15 20 26 26 26 26 22 18 21 16 17 18 20 20 17 23 20 27 39 47 51 51 56 50
31 25 18 23 31 22 21 18 18 28 28 12 18 17 16 14 15 8 11 15 13 14 15 20 20 22 22 17 17 16 18 15 17 19 22 16 20 22 21 23 32 35 47 55 38
30 28 25 30 23 22 21 20 26 28 18 23 23 16 17 22 23 21 11 17 18 20 20 19 19 20 16 20 16 16 18 22 20 21 21 14 19 18 16 18 17 27 41 41 29
30 29 28 34 26 26 21 27 37 20 25 20 19 16 22 25 30 33 31 15 18 14 24 26 25 19 17 16 15 15 14 20 25 21 17 12 16 15 13 12 12 17 32 34 30
31 33 33 36 28 22 20 34 25 25 18 18 16 19 24 23 34 41 45 37 17 15 21 25 23 15 15 13 12 13 14 10 14 16 19 14 11 10 8 10 10 14 16 30 37
36 46 31 26 22 20 27 34 22 16 17 20 28 23 27 36 48 48 54 40 66 42 23 15 22 16 14 15 11 12 10 14 12 22 22 16 13 12 10 9 10 14 13 18 33
44 57 26 22 20 20 30 22 17 14 21 23 25 26 21 54 54 50 54 55 58 57 40 36 18 15 14 18 19 12 14 11 13 18 25 28 18 9 10 10 13 11 11 13 20
68 57 33 28 24 20 23 18 16 18 31 28 31 18 27 28 44 46 67 76 64 52 51 39 41 19 17 13 12 11 11 12 15 20 17 17 16 14 13 9 10 10 9 13 17
83 60 39 35 35 32 26 23 19 39 38 30 34 28 21 51 70 69 64 47 64 54 51 58 48 29 19 15 12 12 10 11 14 20 21 21 22 12 17 9 12 12 9 9 15
79 61 53 46 41 40 39 32 34 30 35 30 28 24 36 46 45 72 61 45 54 48 52 50 46 46 31 19 17 14 12 10 14 16 15 19 15 14 17 20 19 13 11 9 14
65 58 76 73 62 58 47 38 39 41 36 25 29 36 40 50 36 58 47 45 37 48 52 50 51 41 32 22 19 16 12 12 12 15 16 14 18 16 16 23 25 17 13 13 12
75 86 97 96 81 52 48 51 41 38 34 34 33 33 33 43 48 53 43 42 50 50 48 40 52 44 43 24 20 19 12 11 11 12 15 13 14 18 20 19 19 17 14 16 20
86 97 97 98 72 60 56 51 49 42 38 32 29 30 36 35 38 32 26 25 30 37 47 45 40 52 50 31 26 29 22 12 12 11 12 17 15 18 23 21 20 15 12 12 12

GFSSW_850_rhum_036.txt.gz
RH
4 4 4 4 3 3 3 3 3 3 3 2 2 4 10 25 28 21 10 9 10 11 18 14 36 56 79 87 84 78 81 82 70 77 84 83 60 62 64 68 63 68 76 65 65
4 5 4 4 4 3 3 3 3 3 3 2 2 3 14 18 27 26 10 8 9 10 14 20 24 56 75 78 78 73 89 71 56 56 57 87 69 69 63 64 72 85 77 65 56
5 5 4 4 4 4 3 3 3 3 4 4 3 5 10 19 26 19 11 7 7 10 12 20 26 30 42 62 72 70 84 62 55 53 43 48 56 60 68 77 77 89 85 72 59
5 4 4 3 3 3 3 3 3 3 5 5 9 9 18 21 31 17 12 14 7 11 13 14 35 33 37 54 54 61 60 55 48 40 37 37 50 57 54 66 74 62 74 70 76
5 4 3 3 3 2 3 6 10 17 19 14 9 16 30 24 13 18 13 13 11 13 14 14 21 26 39 40 47 51 48 46 43 39 36 34 42 40 50 61 76 81 82 79 76
5 4 4 4 3 4 8 17 24 21 21 24 22 26 36 52 9 15 19 16 11 11 14 15 19 27 29 32 42 38 41 37 35 34 34 36 35 42 68 74 79 76 77 79 79
7 6 4 4 4 5 17 24 23 17 20 20 28 34 53 5 7 22 23 19 13 11 12 12 19 23 23 31 28 30 39 33 35 32 33 34 37 54 68 75 76 78 79 79 79
9 8 7 4 4 7 22 24 21 24 30 31 48 58 43 3 9 11 23 23 26 13 11 10 12 20 22 21 19 33 35 46 34 29 31 34 45 52 66 69 73 75 74 75 75
13 11 9 5 4 11 24 24 16 25 30 15 60 70 46 16 17 23 19 23 28 18 14 13 15 18 20 22 26 31 42 41 34 32 30 36 38 54 64 68 71 72 71 72 73
19 14 12 8 5 19 27 17 8 18 33 25 68 71 22 14 25 25 24 22 28 22 21 18 16 26 24 30 34 37 43 37 36 25 32 36 34 58 60 63 70 71 70 70 72
24 20 14 11 6 27 26 14 17 17 15 17 16 25 22 9 9 18 25 23 29 23 30 23 25 29 24 23 23 28 33 36 28 22 21 26 40 59 54 57 63 71 69 66 66
26 25 17 13 9 26 26 19 18 18 18 11 13 16 16 16 18 13 20 22 21 27 25 35 32 22 23 20 22 24 28 33 28 24 23 26 41 49 52 55 56 61 64 64 63
25 26 22 15 12 19 17 18 18 18 20 17 15 15 14 16 18 12 16 22 22 22 25 33 30 24 24 24 23 24 27 27 32 25 20 20 45 41 45 52 56 57 55 55 53
23 25 25 17 16 16 16 19 18 20 35 25 18 16 15 15 15 18 14 17 22 18 18 26 25 24 28 25 21 28 20 21 23 27 34 18 44 61 55 56 51 48 53 51 52
19 24 23 20 18 19 20 21 22 19 21 18 19 17 14 20 21 22 23 16 24 23 17 22 23 29 28 27 23 24 19 20 21 27 27 25 26 64 56 62 56 49 50 48 49
18 27 26 21 22 19 22 22 21 29 34 19 18 17 14 18 20 28 28 27 17 22 20 16 20 23 26 22 23 20 22 23 23 27 37 26 24 26 64 55 47 41 46 42 51
22 29 30 25 25 22 23 24 31 32 20 24 21 18 16 23 22 30 35 42 46 31 28 21 18 18 23 28 24 24 31 39 38 34 34 22 24 20 39 38 40 40 40 44 48
20 32 30 26 26 26 29 35 41 23 26 19 23 21 24 21 28 32 37 47 58 68 29 28 28 19 18 28 30 28 27 41 48 37 28 19 23 19 15 26 26 37 36 47 47
16 32 30 25 25 26 33 46 34 23 20 25 25 30 28 32 33 41 44 48 52 64 90 33 24 16 16 19 24 26 30 21 21 20 22 18 13 10 11 11 22 37 42 45 46
17 36 34 33 28 25 33 45 30 17 22 24 32 30 35 45 43 48 47 38 49 53 58 61 48 16 16 17 19 21 17 22 23 24 26 22 18 13 11 10 13 32 38 43 48
22 52 42 36 29 23 39 36 20 30 29 33 38 42 30 36 44 55 48 45 55 60 62 60 65 28 16 20 22 23 18 16 18 23 23 26 16 12 12 14 10 27 29 39 44
41 88 45 41 34 34 40 31 27 39 35 32 33 34 31 56 44 44 48 66 50 57 86 61 79 83 28 15 15 18 18 15 16 21 25 25 16 12 10 10 10 11 34 37 38
68 69 44 43 70 67 48 44 32 42 42 41 37 30 32 60 59 58 61 49 50 62 93 90 84 96 35 20 16 16 20 14 18 18 20 18 15 12 12 15 14 9 15 31 34
85 91 62 58 64 66 80 65 52 36 35 33 35 32 38 45 53 56 61 50 48 45 70 87 87 90 73 39 34 19 17 16 13 18 16 16 15 14 14 15 16 10 10 15 27
79 81 96 95 80 90 86 66 59 57 39 34 37 40 40 49 44 55 43 40 43 63 76 84 83 58 50 40 40 38 19 17 16 14 16 14 15 15 17 26 22 13 12 20 30
86 84 83 92 95 85 71 65 65 72 62 51 65 45 35 48 50 60 46 47 54 56 72 64 70 56 51 40 37 27 21 21 13 13 16 17 16 13 14 23 26 27 22 26 32
84 92 98 99 94 97 72 68 68 57 77 60 63 59 51 47 42 45 47 46 46 57 66 63 63 69 71 47 30 33 34 24 13 13 13 20 16 21 32 51 54 21 24 30 33

GFSSW_850_rhum_042.txt.gz
RH
6 5 4 4 4 4 6 8 9 9 9 8 4 3 3 2 3 8 20 19 9 13 11 33 40 46 64 93 95 79 86 88 72 72 70 78 71 78 74 69 69 73 73 92 89
8 7 6 4 4 4 8 16 20 20 19 15 14 8 4 4 4 3 10 14 12 11 24 28 32 68 87 92 89 86 88 73 53 60 64 64 72 70 71 68 80 83 75 76 84
12 10 9 6 4 4 7 19 20 19 15 16 17 15 9 6 8 20 22 18 18 11 19 22 19 76 75 85 87 86 91 60 48 60 54 61 69 72 68 73 77 92 84 81 86
18 15 12 10 6 5 6 14 17 15 10 16 12 14 18 9 13 25 21 17 21 11 21 23 34 78 84 86 79 88 76 65 57 52 59 62 62 67 67 65 63 66 59 76 78
18 18 15 12 9 6 7 15 15 13 8 18 15 14 20 16 7 10 15 22 22 14 19 31 63 49 68 74 60 80 71 64 61 56 56 52 56 58 66 67 67 68 73 81 74
16 16 16 15 12 9 7 15 13 9 8 17 24 16 28 24 14 28 23 21 21 17 23 24 54 46 45 49 64 51 55 57 54 53 50 51 53 55 65 73 74 75 80 81 71
17 15 14 14 14 11 9 14 12 8 11 21 14 28 41 25 22 24 20 40 22 12 15 23 26 38 28 34 39 45 45 39 36 41 49 40 62 63 69 75 77 81 79 77 77
16 16 13 14 14 13 11 14 10 9 13 12 20 38 29 25 20 21 20 21 32 15 21 30 32 28 26 26 23 36 36 50 38 36 35 40 59 66 78 76 77 77 73 74 82
13 13 12 12 12 14 13 11 9 12 11 18 26 44 18 16 15 15 20 23 31 19 22 22 28 23 27 30 39 33 57 50 44 36 38 42 54 78 85 81 77 73 71 72 82
11 12 11 11 13 14 12 10 11 13 14 22 21 30 14 15 18 18 17 28 35 30 28 27 23 28 36 42 59 45 41 44 45 34 42 47 50 82 82 84 80 76 72 70 78
12 15 15 17 18 15 11 12 14 16 12 17 18 16 15 16 19 19 18 36 42 42 45 28 33 29 24 33 33 34 40 43 37 30 44 48 50 85 81 79 83 84 79 74 76
11 15 17 24 18 16 17 20 31 34 31 14 16 15 16 16 19 17 18 26 34 41 32 33 35 24 18 20 29 30 29 34 32 28 37 41 48 77 80 78 79 82 83 79 78
10 13 18 22 15 17 22 26 28 24 24 16 18 16 16 17 21 22 22 25 20 35 37 39 28 21 21 25 25 28 35 30 33 27 28 36 45 76 76 74 76 77 79 80 80
10 11 21 20 17 20 23 28 27 20 29 19 19 16 17 16 17 21 18 29 21 29 37 37 26 26 23 24 27 35 25 27 26 31 40 33 53 70 82 80 75 76 78 78 77
10 11 28 22 21 25 28 28 23 20 26 21 19 17 18 18 19 21 25 29 35 35 27 38 33 32 32 22 23 23 23 27 27 33 32 30 40 55 78 91 81 74 75 75 74
11 16 28 25 25 27 28 26 21 24 29 24 20 20 24 23 26 28 30 36 47 55 40 30 20 24 28 24 20 23 26 31 31 37 43 34 33 41 87 75 73 67 71 72 72
10 14 34 34 34 29 26 23 27 29 22 26 26 25 27 37 38 35 50 75 77 55 81 58 38 20 18 28 25 30 31 55 53 53 45 34 34 36 34 60 59 62 61 66 71
10 10 38 36 32 26 27 28 31 25 26 22 25 26 32 38 40 43 42 74 73 76 88 94 49 29 23 26 33 32 35 55 62 57 39 36 45 35 22 38 51 52 52 58 63
12 10 42 42 36 30 27 42 37 25 25 28 26 35 36 39 36 44 51 64 79 75 89 94 81 50 38 29 24 36 40 33 44 38 48 30 30 20 22 24 43 46 49 52 57
20 17 48 37 38 33 37 44 36 33 32 28 35 34 43 38 45 51 48 43 80 71 71 76 93 59 47 39 27 31 30 43 49 55 48 40 28 34 25 29 32 41 43 47 51
23 27 43 28 32 30 49 43 32 34 32 34 40 40 43 41 51 62 49 46 51 68 66 82 94 68 56 51 32 31 38 38 35 45 47 39 33 25 25 22 28 29 42 39 45
43 34 37 40 51 69 67 66 46 37 36 37 36 40 42 49 52 55 59 51 69 72 82 74 99 95 72 52 50 58 35 41 42 46 42 41 33 15 18 20 19 17 30 31 35
64 66 48 45 85 91 82 75 61 43 43 41 40 38 34 47 55 58 56 52 72 77 84 84 97 92 78 45 41 45 33 31 33 36 40 44 43 17 15 15 12 13 13 18 24
78 86 58 63 78 87 94 85 72 50 51 57 44 38 40 48 58 50 59 61 73 64 61 78 97 97 89 62 64 66 52 31 36 34 40 36 33 27 22 16 15 12 10 13 24
79 91 97 92 88 94 93 84 81 71 64 65 55 68 76 68 50 64 57 51 67 64 73 89 99 89 78 80 75 69 59 49 48 36 34 28 28 24 24 22 19 11 12 10 10
84 89 88 89 91 87 93 96 89 85 92 83 95 71 81 100 74 66 52 57 61 79 83 91 98 96 94 66 61 61 47 44 42 38 26 19 20 37 18 28 67 77 80 58 30
88 89 96 90 85 87 94 95 95 96 94 95 93 97 97 82 62 57 53 50 59 82 92 100 100 97 92 56 52 62 51 59 63 67 60 29 42 68 59 93 98 98 100 91 56

GFSSW_850_rhum_045.txt.gz
RH
13 11 9 7 5 5 5 11 16 18 17 12 14 12 7 3 3 3 5 17 18 11 13 36 69 63 80 92 95 81 76 75 58 59 58 67 65 82 75 74 68 74 78 88 98
17 16 13 10 8 6 5 8 14 15 13 12 11 14 14 8 4 5 21 12 21 13 13 46 81 83 78 86 87 76 76 62 46 43 51 64 63 70 70 66 78 82 82 99 100
16 17 16 14 11 8 6 9 12 12 11 8 10 10 12 14 9 30 31 31 20 17 36 50 56 67 66 76 79 69 68 54 43 47 53 62 64 69 63 64 71 80 91 100 99
16 14 15 14 13 11 8 7 12 11 7 8 20 18 12 16 13 23 22 22 18 14 41 46 70 62 52 64 72 74 67 62 58 49 51 55 59 57 61 57 66 69 88 95 91
15 14 13 12 10 11 10 8 11 10 7 10 22 17 15 18 11 21 22 19 16 19 53 46 57 48 40 52 62 68 64 61 60 54 52 52 50 51 57 68 71 80 89 88 85
13 13 13 11 10 10 10 10 10 9 7 12 14 21 24 16 20 21 28 24 23 43 52 47 42 44 42 58 46 43 58 56 52 49 49 48 43 50 60 73 79 84 85 82 80
10 10 10 10 10 9 12 11 10 8 8 11 19 26 28 30 17 19 20 36 21 44 48 50 41 35 34 27 41 43 49 39 39 37 41 41 44 51 66 73 78 81 82 80 78
10 11 12 11 9 10 13 11 10 9 10 17 22 29 29 16 16 18 21 23 32 42 40 42 36 40 28 27 23 26 30 37 34 37 36 36 43 45 70 70 74 77 79 79 77
10 10 12 16 16 14 13 10 11 11 15 17 19 23 15 18 20 20 20 24 38 51 28 27 32 28 27 28 27 30 19 28 28 32 34 35 39 52 68 66 71 75 75 74 74
11 9 12 21 20 15 12 10 13 13 16 21 16 18 14 16 18 19 26 29 43 43 29 27 27 22 23 24 22 25 23 34 28 32 33 38 36 58 69 63 66 70 69 69 70
11 10 11 23 18 16 13 13 17 19 16 18 17 16 16 16 16 17 33 44 42 28 21 27 22 26 20 22 18 28 32 24 33 28 34 35 35 53 68 69 67 67 66 65 66
12 11 10 23 16 18 18 25 36 32 26 16 16 16 15 18 19 15 26 32 38 35 24 24 23 17 16 18 24 21 30 30 28 28 33 34 35 34 60 65 68 66 64 63 64
12 10 12 23 20 19 22 28 32 29 23 16 18 17 16 18 21 19 26 27 27 36 34 28 22 18 20 18 20 22 21 28 28 24 25 29 33 32 54 60 66 68 65 63 61
12 10 18 22 21 23 26 29 25 24 18 19 18 17 16 18 17 19 24 30 22 28 32 33 26 22 20 19 17 18 15 21 27 29 32 28 43 34 34 60 61 64 69 67 65
11 11 25 26 24 27 32 28 23 20 19 19 18 17 18 16 20 20 25 31 29 29 31 31 30 31 30 24 18 18 15 16 16 27 31 29 36 32 39 48 55 58 62 65 68
15 11 29 28 28 29 27 24 21 20 21 22 18 18 20 24 28 26 41 44 47 37 38 28 28 23 26 22 18 17 18 19 17 16 26 32 33 31 33 44 45 49 58 62 66
34 15 32 37 32 27 25 24 21 22 20 24 21 20 25 28 28 27 49 52 45 19 34 30 21 20 18 24 22 22 25 31 31 30 21 17 32 30 24 32 33 41 54 60 64
36 16 34 43 36 29 24 22 29 23 24 21 21 23 25 25 31 29 40 50 51 50 48 42 11 32 37 22 24 26 25 28 35 28 16 16 32 28 21 20 30 35 42 55 62
31 19 50 37 38 34 27 29 26 25 22 24 24 26 28 30 24 28 40 57 59 56 38 50 46 37 30 35 32 24 31 20 23 31 27 14 17 20 20 20 19 30 39 50 57
28 32 43 30 28 32 32 37 29 28 27 25 27 26 29 29 29 31 34 43 60 57 52 57 27 36 40 35 27 31 19 33 29 36 33 22 20 18 22 22 21 21 31 41 48
31 32 36 37 33 32 36 38 30 32 32 28 29 28 29 30 32 36 30 41 52 61 55 50 45 22 29 34 30 26 30 26 26 29 28 26 21 16 17 23 21 22 22 31 41
40 20 35 38 45 60 50 61 55 35 37 32 31 29 31 33 38 38 34 28 48 54 56 55 78 66 30 21 26 34 50 28 33 41 32 29 21 16 15 16 16 16 19 23 35
64 55 42 45 59 65 68 63 59 45 44 41 37 34 32 34 39 39 41 40 58 48 59 64 73 47 18 17 26 36 33 39 26 26 37 36 28 16 18 18 18 18 17 28 34
70 52 62 66 84 80 83 72 66 52 52 57 49 38 37 39 45 41 44 57 58 48 63 60 72 52 35 26 43 58 44 42 36 30 36 32 26 20 20 19 16 17 18 20 31
74 87 87 80 71 79 77 73 74 68 65 64 66 59 67 64 50 49 43 42 60 55 66 66 71 56 53 47 46 50 51 48 51 34 33 31 30 24 22 22 19 19 18 21 20
88 87 88 83 91 82 85 83 82 81 84 88 82 73 94 97 61 56 49 46 44 51 62 72 66 60 60 36 45 58 49 46 44 40 31 27 26 29 31 27 23 26 44 44 44
90 91 96 91 83 86 86 95 93 94 96 85 94 99 100 94 93 78 63 60 49 51 58 79 81 73 54 37 52 59 45 42 40 33 29 28 24 47 45 56 68 72 73 72 73

GFSSW_850_rhum_048.txt.gz
RH
15 16 15 13 11 8 6 7 11 12 11 9 10 9 14 13 5 4 7 23 19 11 39 76 75 71 65 74 69 71 56 54 42 43 50 53 58 72 67 67 58 59 58 69 94
15 14 14 14 13 11 9 7 10 12 10 7 7 10 11 13 8 14 10 12 22 13 61 65 66 62 55 55 60 56 44 38 33 32 37 47 59 55 56 55 59 62 68 87 94
12 13 13 11 10 10 10 8 9 10 10 7 8 13 14 10 36 34 34 32 21 14 54 51 46 50 36 45 47 45 44 37 34 34 41 50 54 52 45 49 53 59 87 94 89
11 10 11 11 10 8 9 8 10 10 9 8 9 11 14 11 14 26 21 21 24 16 53 45 43 36 28 37 41 42 41 42 38 40 42 42 43 44 49 44 50 59 77 83 77
8 8 9 9 9 8 8 10 10 9 8 8 10 15 13 28 14 21 23 17 24 44 51 42 38 30 25 24 29 37 37 46 48 44 39 47 44 45 46 49 53 59 72 73 69
8 7 9 10 9 8 8 11 10 9 8 9 16 17 33 13 24 26 29 38 44 51 48 34 32 25 22 21 23 22 28 45 46 38 39 42 36 39 40 52 56 62 68 66 64
10 7 8 10 12 11 10 12 10 9 8 15 21 22 19 19 22 21 30 51 48 42 39 29 27 26 18 20 24 23 31 26 34 40 35 34 33 35 48 53 58 62 65 63 62
10 8 7 10 16 17 14 11 10 10 14 19 23 30 19 20 21 19 28 47 51 46 35 32 30 24 19 18 14 18 16 25 22 28 30 32 36 34 49 51 56 60 62 62 61
10 9 7 10 19 17 12 11 11 14 16 17 25 37 13 16 16 18 22 37 42 42 33 34 28 24 23 16 13 12 13 17 22 25 27 30 29 38 45 46 52 58 60 60 61
11 10 8 14 18 14 13 12 12 14 16 16 14 23 13 14 15 20 32 39 40 42 25 21 23 18 17 14 14 12 13 13 18 25 28 30 28 37 44 42 48 55 58 60 59
11 10 8 21 17 17 15 20 27 20 16 16 15 14 13 15 15 22 32 36 35 38 25 17 19 19 13 13 10 14 13 13 17 19 30 30 27 30 42 42 47 51 55 57 57
12 11 9 25 19 19 26 25 34 30 17 16 16 14 14 16 14 16 28 30 24 25 19 18 18 12 12 12 14 12 19 21 17 19 26 28 28 23 36 39 44 48 50 53 53
12 11 9 25 21 23 28 29 27 30 17 14 16 14 14 15 14 14 22 23 26 20 18 18 13 11 12 15 16 15 13 14 20 22 20 27 30 26 26 38 41 45 46 49 49
26 17 10 24 24 23 28 25 22 23 14 15 14 14 13 15 13 15 20 22 19 25 22 17 12 16 14 16 13 14 10 11 13 20 27 22 33 28 24 34 37 42 45 46 48
37 34 10 28 24 28 25 22 21 24 12 15 14 15 14 12 14 14 22 17 17 18 24 22 21 20 21 18 13 14 10 10 11 13 20 25 31 25 22 28 35 36 40 43 47
37 36 12 35 30 29 23 22 22 17 14 17 14 14 14 15 16 15 20 23 26 16 20 19 21 20 18 17 17 15 15 14 13 11 13 19 26 26 22 24 23 29 34 40 45
36 28 13 33 40 29 24 24 16 14 15 18 15 14 15 17 16 15 20 19 16 13 16 16 19 18 18 20 18 18 18 22 22 17 13 10 17 24 18 17 21 22 29 35 41
28 16 34 39 36 30 31 18 22 15 16 15 15 16 17 17 18 17 20 19 23 20 13 13 13 15 24 20 20 21 18 22 28 16 12 9 13 14 15 16 17 22 23 31 37
29 40 45 40 37 33 26 20 15 18 16 17 17 19 18 19 18 18 21 22 26 23 18 17 14 22 21 24 23 21 22 15 18 15 14 9 9 7 10 15 16 18 22 24 34
27 49 37 30 28 34 22 23 21 19 19 19 24 20 23 20 23 22 19 26 28 27 22 25 16 13 18 18 20 25 15 22 20 31 29 17 15 10 12 17 16 16 18 22 30
50 33 37 32 33 28 27 27 28 24 26 24 25 24 23 23 23 23 21 24 27 31 27 23 21 16 14 9 11 20 25 23 19 20 25 25 16 10 10 11 16 16 16 18 26
52 18 43 45 32 35 34 42 44 28 28 25 26 25 26 24 27 27 27 20 30 29 27 27 27 33 17 8 10 14 27 21 24 29 22 22 18 9 11 10 10 13 15 16 20
52 41 48 43 41 41 44 40 44 36 33 35 32 28 26 30 35 27 25 20 31 27 28 33 32 33 13 10 12 15 14 22 25 25 30 27 23 13 13 14 12 11 11 16 18
54 38 47 54 65 62 64 51 46 42 41 45 42 38 37 36 27 33 29 29 33 28 46 35 26 32 21 14 16 28 26 21 25 31 28 26 23 18 16 14 14 15 16 13 14
62 57 68 61 57 57 54 55 60 60 46 44 46 48 55 65 45 37 35 34 35 34 44 40 58 34 28 25 23 21 17 24 36 36 39 26 22 19 18 16 14 14 15 17 18
65 72 77 70 76 57 60 60 64 73 76 65 65 55 75 96 56 52 51 42 39 39 42 39 55 36 34 26 26 24 17 15 21 29 33 32 31 21 16 18 16 15 16 19 24
86 94 92 82 69 71 72 92 85 80 75 75 75 90 94 90 86 92 62 67 73 52 53 58 56 51 43 24 20 23 19 20 17 22 29 36 26 19 21 23 22 21 22 30 36